Home   Weather   Spartanburg   Past weeks

Flag for USA Past Weather in Spartanburg, South Carolina, USA — Yesterday and Last 2 Weeks

Now
72 °F

Overcast.


Feels Like: 71 °F
Forecast: 64 / 85 °F
Wind: 3 mph from Southwest

Location: Spartanburg Memorial

Current Time: Sep 28, 2016 at 11:34:44 AM

Latest Report: Sep 28, 2016 at 10:55 AM


Visibility: 10 mi

Pressure: 29.95 "Hg

Humidity: 83%

Dew Point: 66 °F

Location of SpartanburgLocation

Past Weather in Spartanburg — Graph

°F

Spartanburg Temperature Yesterday

Maximum temperature yesterday: 82 °F (at 3:15 PM)
Minimum temperature yesterday: 66 °F (at 4:55 AM)
Average temperature yesterday: 71 °F

High & Low Weather Summary for the Past Weeks

 TemperatureHumidityPressure
High91 °F (Sep 14, 3:35 PM)100% (Sep 27, 9:15 AM)30.24 "Hg (Sep 27, 9:15 AM)
Low63 °F (Sep 18, 7:15 AM)28% (Sep 14, 3:35 PM)29.85 "Hg (Sep 27, 4:15 PM)
Average75 °F68%30.07 "Hg
* Reported Sep 13 10:15 AM — Sep 28 10:35 AM, Spartanburg, Weather by CustomWeather, © 2016

Note: Actual official high and low records may vary slightly from our data, if they occured in-between our weather recording intervals... More about our weather records

Advertising

Spartanburg Weather History for the Previous 24 Hours

Scroll right to see more
 ConditionsComfort  
Time TempWeatherWind HumidityBarometerVisibility
10:35 AM
Wed, Sep 28
72 °FLow clouds.5 mph83%29.95 "Hg10 mi
10:15 AM72 °FLow clouds.No wind78%29.95 "Hg10 mi
9:55 AM72 °FPartly sunny.5 mph78%29.95 "Hg10 mi
9:35 AM70 °FScattered clouds.3 mph83%29.94 "Hg10 mi
9:15 AM70 °FPartly sunny.No wind83%29.94 "Hg10 mi
8:55 AM68 °FPartly sunny.No wind88%29.94 "Hg10 mi
8:35 AM68 °FPartly sunny.No wind88%29.94 "Hg10 mi
8:15 AM66 °FPartly sunny.No wind88%29.93 "Hg10 mi
7:55 AM66 °FSunny.No wind88%29.93 "Hg10 mi
7:35 AM66 °FSunny.3 mph88%29.92 "Hg10 mi
7:15 AM66 °FClear.No wind88%29.91 "Hg10 mi
6:55 AM66 °FClear.5 mph88%29.91 "Hg10 mi
6:35 AM66 °FClear.6 mph88%29.91 "Hg10 mi
6:15 AM66 °FClear.6 mph88%29.91 "Hg10 mi
5:55 AM66 °FClear.3 mph88%29.90 "Hg10 mi
5:35 AM66 °FPassing clouds.3 mph88%29.90 "Hg10 mi
5:15 AM68 °FPassing clouds.5 mph83%29.90 "Hg10 mi
4:55 AM66 °FPassing clouds.6 mph88%29.90 "Hg10 mi
4:35 AM66 °FPassing clouds.5 mph88%29.90 "Hg10 mi
4:15 AM66 °FThundershowers. Passing clouds.5 mph88%29.90 "Hg10 mi
3:55 AM68 °FThundershowers. Clear.5 mph83%29.91 "Hg10 mi
3:35 AM68 °FPassing clouds.5 mph83%29.91 "Hg10 mi
3:15 AM68 °FPassing clouds.8 mph83%29.91 "Hg10 mi
2:55 AM66 °FPassing clouds.6 mph88%29.91 "Hg10 mi
2:35 AM66 °FClear.5 mph88%29.92 "Hg10 mi
2:15 AM68 °FClear.5 mph83%29.92 "Hg10 mi
1:55 AM66 °FClear.3 mph88%29.91 "Hg10 mi
1:35 AM66 °FClear.5 mph88%29.92 "Hg10 mi
1:15 AM68 °FClear.3 mph83%29.92 "Hg10 mi
12:55 AM68 °FClear.5 mph83%29.92 "Hg10 mi
12:35 AM68 °FClear.6 mph88%29.91 "Hg10 mi
12:15 AM68 °FClear.5 mph88%29.91 "Hg10 mi
11:55 PM
Tue, Sep 27
68 °FClear.5 mph88%29.91 "Hg10 mi
11:35 PM68 °FClear.5 mph88%29.91 "Hg10 mi
11:15 PM68 °FClear.3 mph88%29.91 "Hg10 mi
10:55 PM68 °FClear.3 mph88%29.92 "Hg10 mi
10:35 PM68 °FClear.No wind88%29.91 "Hg10 mi
10:15 PM68 °FThundershowers. Passing clouds.No wind88%29.91 "Hg10 mi
9:55 PM68 °FThundershowers. Passing clouds.No wind88%29.91 "Hg10 mi
9:35 PM70 °FPassing clouds.No wind83%29.91 "Hg10 mi
9:15 PM70 °FClear.No wind83%29.90 "Hg10 mi
8:55 PM70 °FPassing clouds.No wind83%29.90 "Hg10 mi
8:15 PM70 °FPassing clouds.No wind83%29.89 "Hg10 mi
7:55 PM72 °FPassing clouds.No wind78%29.89 "Hg10 mi
7:35 PM72 °FPassing clouds.No wind78%29.89 "Hg10 mi
7:15 PM72 °FSunny.No wind78%29.88 "Hg10 mi
6:55 PM73 °FThundershowers. Scattered clouds.No wind74%29.87 "Hg10 mi
6:35 PM73 °FBroken clouds.No wind74%29.87 "Hg10 mi
6:15 PM73 °FThundershowers. Scattered clouds.5 mph74%29.86 "Hg10 mi
5:55 PM73 °FSunny.No wind69%29.87 "Hg10 mi
5:35 PM73 °FScattered clouds.No wind69%29.87 "Hg10 mi
5:15 PM72 °FBroken clouds.No wind73%29.87 "Hg10 mi
4:55 PM73 °FThundershowers. Broken clouds.3 mph74%29.87 "Hg10 mi
4:35 PM73 °FThunderstorms. Partly sunny.15 mph69%29.88 "Hg10 mi
4:15 PM82 °FThundershowers. Scattered clouds.5 mph55%29.85 "Hg10 mi
3:55 PM82 °FThunderstorms. Scattered clouds.8 mph55%29.86 "Hg10 mi
3:35 PM82 °FThundershowers. Partly sunny.3 mph55%29.87 "Hg10 mi
3:15 PM82 °FBroken clouds.5 mph58%29.88 "Hg10 mi
2:55 PM81 °FPartly sunny.5 mph62%29.88 "Hg10 mi
1:55 PM81 °FBroken clouds.3 mph66%29.92 "Hg10 mi
1:35 PM81 °FPartly sunny.5 mph66%29.93 "Hg10 mi
1:15 PM81 °FPartly sunny.3 mph66%29.94 "Hg10 mi
12:55 PM79 °FPartly sunny.5 mph70%29.95 "Hg10 mi
12:35 PM79 °FBroken clouds.No wind70%29.96 "Hg10 mi
12:15 PM77 °FPartly sunny.5 mph74%29.97 "Hg10 mi
11:55 AM75 °FScattered clouds.3 mph78%29.98 "Hg10 mi
11:35 AM75 °FPartly sunny.3 mph78%29.99 "Hg10 mi
11:15 AM73 °FPartly sunny.5 mph83%30.00 "Hg10 mi
Weather by CustomWeather, © 2016

See weather overviewHow to use our weather pages